Terminal Aerodrome Forecast
Issued by NWS Missoula, MT

Home | Current Version | Previous Version | Text Only | Print | Product List | Glossary On
Versions: 1 2 3 4 5 6 7 8 9 10 11 12 13 14 15 16 17 18 19 20
000
FTUS45 KMSO 220301 AAA
TAFMSO
TAF AMD
KMSO 220301Z 2203/2224 31006KT P6SM -SHSN BKN080
     FM220700 30008KT 6SM -SHSN BKN035 OVC050=

USA.gov is the U.S. government's official web portal to all federal, state and local government web resources and services.